* Astronomy

Members Login
Username 
 
Password 
    Remember Me  
Post Info TOPIC: MIMOSA satellite re-entry


L

Posts: 131433
Date:
RE: MIMOSA satellite re-entry
Permalink  
 


Update:
The MIMOSA satellite re-entered the Earths atmosphere on the 11th December, 2011 @ 21:53 GMT 12 minutes.

Inclination: 96.70
Revolution Number: 47296
Predicted Location: 4.1N, 295.5E



__________________


L

Posts: 131433
Date:
Permalink  
 

Update:
The MIMOSA satellite is predicted to re-enter the Earths atmosphere on the 11th December, 2011 @ 22:20 GMT 4 hours.

MIMOSA
1 27841U 03031B   11345.63818545  .06119606  21515-5  11844-3 0  8205
2 27841 096.7043 162.5049 0015074 230.1333 130.2873 16.46114183472914

Period: 88.18 minutes
Inclination: 96.70
Apogee: 200 km
Perigee: 169 km
Revolution Number: 47296
Predicted Location: 71.1S, 128.1E



__________________


L

Posts: 131433
Date:
Permalink  
 

Update:
The MIMOSA satellite is predicted to re-enter the Earths atmosphere on the 12th December, 2011 @ 00:14 GMT 24 hours.

MIMOSA
1 27841U 03031B   11343.92693514  .02252228  20743-5  41127-3 0  8137
2 27841 096.7087 160.6949 0023213 229.3090 130.6414 16.31540213472639

Period: 88.36 minutes
Inclination: 96.71
Apogee: 211 km
Perigee: 176 km
Revolution Number: 47299
Predicted Location: 34.7N, 75.1E



__________________


L

Posts: 131433
Date:
Permalink  
 

The MIMOSA (MIcroMeasurements Of Satellite Accelerations) scientific satellite that was launched from the Plesetsk Cosmodrome on the 30th June, 2003, is predicted to re-enter the Earths atmosphere on the 12th December, 2011 @ 01:13 GMT 48 hours.

MIMOSA
1 27841U 03031B   11342.82131976  .01498081  00000-0  40805-3 0  8054
2 27841 096.7128 159.5315 0026422 229.3173 130.6206 16.27077919472458

Period: 88.05 minutes
Inclination: 96.71
Apogee: 231 km
Perigee: 190 km
Revolution Number: 47298
Predicted Location: 82.4S, 125.8E



__________________
Page 1 of 1  sorted by
 
Quick Reply

Please log in to post quick replies.



Create your own FREE Forum
Report Abuse
Powered by ActiveBoard